Temperature
5 4 3 4 4 5 5 5 5 6 6 6 6 6 6 7 7 7 7 7 7 8 8 8 9 9 9 9 9 9 9 9 9 9 9 9 9 9 10 10 10 10 10 10
4 4 4 5 5 5 5 4 4 5 6 6 5 5 6 6 6 7 7 7 7 7 8 8 8 8 8 8 8 8 8 8 8 8 8 9 9 9 9 9 9 10 10 10
4 4 5 5 5 5 4 4 4 4 5 5 5 5 6 6 6 6 7 7 7 7 7 7 8 8 8 8 8 8 8 8 8 8 8 8 8 8 9 9 9 9 9 9
3 4 5 4 4 4 4 5 5 5 4 4 5 5 5 5 5 5 6 6 6 6 7 7 7 7 8 8 8 7 8 8 8 8 8 8 8 8 8 8 9 9 9 9
3 4 4 4 4 4 4 5 5 5 4 3 4 4 5 5 5 5 5 6 6 6 6 6 6 7 7 7 7 7 7 7 8 8 8 8 8 8 8 8 8 8 8 8
3 4 4 4 4 5 4 4 4 3 3 3 4 4 4 4 5 5 5 5 5 5 5 6 6 6 7 7 7 7 7 7 7 7 7 7 8 7 7 7 7 7 7 8
2 3 4 4 4 4 3 3 3 3 3 4 4 4 4 4 5 5 5 5 5 5 5 5 5 6 6 6 6 7 6 6 7 7 7 7 7 7 7 7 7 7 7 7
2 2 3 3 3 3 3 3 3 3 3 3 4 4 4 4 4 5 5 5 5 5 5 5 5 5 6 6 6 6 6 6 6 6 6 6 6 6 6 6 7 7 7 6
1 2 3 3 3 3 3 2 2 2 1 2 3 3 4 4 3 3 4 4 4 4 4 4 4 5 5 5 5 6 6 6 6 6 6 6 6 6 6 6 6 6 6 6
1 1 2 2 3 3 2 2 1 1 2 3 3 3 3 3 3 2 2 3 3 3 4 4 4 4 4 4 5 5 5 5 5 5 5 5 5 5 5 5 5 5 6 6
1 0 1 1 1 1 2 1 1 1 1 2 3 3 3 3 2 2 2 2 3 3 3 3 3 4 4 4 4 4 4 4 4 4 4 5 5 5 4 5 5 5 5 5
0 -1 -0 0 0 1 1 1 0 1 1 0 1 2 3 2 2 2 2 2 2 2 2 3 3 3 3 3 4 4 4 4 4 4 4 4 4 4 4 4 4 4 4 5
-0 -1 0 1 1 -0 -0 -0 -0 -0 -0 -0 1 2 2 2 1 2 2 2 2 2 2 2 2 3 3 3 3 3 3 3 3 3 3 3 3 3 3 4 4 4 4 4
0 -1 -0 1 1 -0 -1 -1 -1 -1 -0 -0 0 2 2 1 1 1 1 2 1 1 1 1 2 2 2 2 2 2 2 2 2 2 2 3 3 3 3 3 3 3 3 3
-1 -1 -2 -1 -0 -1 -1 -1 -1 -1 -1 -0 1 0 1 1 0 1 1 1 1 1 1 1 1 1 1 1 2 2 2 2 2 2 2 2 2 2 2 3 3 3 3 3
-2 -2 -2 -1 -0 -0 -1 -0 -1 -1 -1 -1 -0 0 1 1 1 1 1 1 1 0 0 0 1 1 1 1 1 1 1 1 1 2 2 2 2 2 2 2 2 2 2 2
-3 -3 -2 -2 -1 -1 -0 -0 -1 -1 -1 -1 -0 0 -0 -0 -0 0 0 0 0 0 0 0 0 0 0 0 0 1 1 1 1 1 1 1 1 1 1 1 2 2 2 2
-3 -3 -3 -3 -2 -0 1 -1 -1 -1 -1 -2 -1 -1 -1 -0 0 1 1 0 0 0 -0 -0 0 0 0 0 0 0 0 0 0 0 0 0 0 1 1 1 1 1 1 1
-3 -3 -3 -3 -3 -2 -1 -1 -1 -1 -1 -2 -2 -1 -1 0 -0 -0 0 0 0 -0 -0 -0 -0 -0 -0 -0 -0 -0 -0 -0 -0 -0 -0 -0 -0 0 0 0 0 1 1 1
-4 -4 -4 -4 -2 -1 0 -1 -1 -1 -1 -1 -2 -2 -1 -1 -2 -1 0 -0 -0 -0 -0 -0 -0 -0 -0 -1 -1 -1 -1 -1 -1 -1 -1 -1 -1 -1 -1 -0 -0 -0 0 0
-4 -4 -4 -4 -3 -2 -1 -1 -1 -1 -0 -0 -1 -1 -1 -2 -1 -1 -1 -1 -1 -1 -1 -1 -1 -1 -1 -1 -1 -1 -1 -1 -1 -1 -1 -1 -1 -1 -1 -1 -1 -1 -1 -1
-4 -5 -5 -4 -3 -2 -2 -2 -2 -1 -0 -0 -0 -1 -1 -1 -1 -1 -1 -1 -1 -1 -1 -1 -1 -1 -1 -1 -2 -2 -2 -2 -2 -2 -2 -2 -2 -2 -1 -1 -1 -1 -1 -1
-5 -4 -4 -4 -2 -1 -1 -1 0 0 -0 -0 -0 -1 -1 -1 -1 -2 -2 -2 -1 -1 -1 -1 -1 -1 -1 -2 -2 -2 -2 -2 -2 -2 -2 -2 -2 -2 -2 -2 -2 -2 -2 -2
-5 -5 -5 -5 -4 -2 -1 -0 -0 0 -0 -0 -0 -1 -1 -1 -2 -2 -2 -2 -2 -2 -2 -2 -2 -2 -2 -2 -2 -2 -2 -2 -2 -2 -2 -2 -2 -2 -2 -2 -2 -2 -2 -2
-4 -5 -5 -5 -4 -3 -1 -0 -0 -0 -0 -1 -1 -1 -2 -2 -2 -2 -2 -2 -2 -2 -2 -2 -2 -2 -2 -2 -2 -2 -3 -3 -3 -3 -3 -3 -3 -3 -2 -2 -2 -3 -2 -3
-5 -4 -4 -3 -2 -3 -1 0 -0 -0 -1 -1 -1 -2 -2 -2 -2 -2 -3 -3 -3 -3 -3 -3 -3 -2 -2 -2 -3 -3 -3 -3 -3 -3 -3 -3 -3 -3 -3 -3 -3 -3 -3 -3
Wind_Speed
2 3 1 3 4 4 3 3 6 8 6 4 7 10 10 7 5 4 4 4 4 5 5 2 1 2 1 2 3 3 2 1 1 1 1 1 0 0 0 1 0 2 2 3
3 1 5 3 2 2 2 4 6 7 5 5 8 10 9 6 4 4 4 5 5 5 4 2 2 2 3 3 3 4 3 2 1 1 1 1 1 1 1 1 1 1 2 2
2 3 3 1 2 1 4 5 5 6 7 4 5 6 5 3 2 1 2 3 4 4 5 3 2 3 2 3 3 3 4 3 2 1 0 2 2 0 1 1 1 1 1 2
1 4 2 1 3 2 5 5 6 6 4 4 2 4 5 4 3 4 5 5 4 3 2 2 2 2 3 3 3 3 3 3 2 2 2 3 2 2 2 1 1 2 0 1
2 2 2 2 5 4 6 5 6 6 4 4 3 3 6 3 4 6 6 5 4 3 2 3 3 2 2 2 2 2 2 2 2 2 3 4 2 1 1 0 0 1 1 0
3 3 1 3 5 4 4 2 2 1 1 3 5 4 6 4 5 5 6 5 4 3 3 3 2 1 1 1 1 2 2 2 1 1 2 3 3 2 2 1 0 1 1 0
5 4 3 2 3 3 2 2 3 4 2 5 3 3 7 6 4 5 5 5 4 2 2 2 2 2 1 1 1 1 2 1 1 1 0 2 3 3 3 2 2 1 1 1
1 5 3 2 0 2 1 2 2 2 3 4 3 4 5 4 3 2 2 2 1 1 2 2 2 1 1 1 0 0 1 1 1 1 0 1 1 1 1 1 1 1 1 1
2 4 3 2 1 1 1 0 1 2 2 4 5 5 5 3 5 5 4 3 2 3 2 2 1 1 1 1 1 1 0 0 0 1 1 1 1 1 0 0 0 0 0 0
3 2 4 3 2 2 2 3 3 2 0 4 5 4 4 5 6 5 5 4 4 3 3 2 2 2 2 1 1 0 1 1 0 0 0 0 1 1 0 0 0 0 0 1
2 2 4 3 0 2 1 1 1 1 2 2 4 5 2 3 4 4 4 4 3 2 2 2 2 2 1 1 1 1 1 0 0 0 0 1 1 1 1 0 0 0 1 1
2 3 2 4 3 1 2 3 3 2 3 3 3 6 3 3 3 2 3 3 3 2 2 2 2 2 3 2 2 1 1 1 0 0 0 1 1 1 1 1 1 0 0 0
4 3 2 5 3 3 1 2 2 2 1 3 3 7 3 4 5 4 3 3 3 3 3 3 2 2 3 3 3 2 1 1 1 0 1 1 1 1 0 0 1 1 0 1
4 3 4 6 6 3 4 5 3 3 3 4 7 10 10 8 7 6 4 3 3 3 3 3 3 3 3 3 3 2 2 1 1 1 1 1 0 0 0 1 1 1 1 2
3 2 4 6 6 4 6 8 6 7 7 7 8 9 12 9 7 6 4 3 3 4 4 4 4 4 3 3 3 3 2 2 1 1 1 0 0 1 1 1 2 2 2 2
2 2 1 4 4 4 7 9 8 8 7 8 9 11 10 7 4 4 4 4 4 4 4 5 5 4 3 3 3 3 2 2 1 1 1 1 1 2 2 2 2 2 2 2
2 3 1 4 5 5 6 7 7 6 6 6 8 9 6 6 6 5 4 4 5 5 4 5 5 4 4 3 3 3 2 1 1 1 1 1 1 2 1 2 2 2 2 2
5 4 2 2 4 4 7 1 4 6 7 8 8 8 6 7 6 4 3 4 4 5 5 5 5 4 3 3 2 2 1 1 1 0 0 1 1 1 1 2 1 1 1 1
4 5 3 1 2 7 8 3 3 4 7 6 8 8 7 6 5 5 3 3 4 6 6 5 4 3 3 2 2 0 1 1 1 0 0 0 1 1 1 1 1 1 1 1
2 3 4 3 3 6 6 2 1 1 6 4 4 6 6 4 4 6 4 4 5 5 4 3 3 2 2 2 1 0 0 0 1 1 1 1 1 1 1 0 0 1 1 1
2 2 4 5 5 8 6 2 3 3 6 3 3 5 5 4 6 5 5 5 4 4 4 3 2 2 2 1 1 1 1 2 2 1 1 1 2 2 1 1 1 1 1 1
8 6 6 5 5 9 4 5 6 7 3 3 4 4 4 5 5 5 4 5 4 4 4 3 2 3 2 0 2 1 1 2 1 1 1 1 1 1 1 1 1 1 2 2
7 8 6 9 9 5 5 7 6 4 4 4 4 5 4 4 5 4 4 4 4 4 4 3 2 3 2 0 1 2 2 1 1 1 1 1 1 1 1 2 2 1 2 1
4 4 4 6 9 7 7 6 5 5 6 5 5 4 3 4 4 4 4 4 4 3 3 3 2 2 2 1 1 1 1 1 2 2 1 1 1 1 1 1 1 1 2 1
6 6 4 6 7 6 6 7 7 5 4 4 3 3 3 3 3 3 3 4 4 4 3 3 2 2 2 2 1 1 1 1 2 2 2 1 1 1 1 1 1 1 2 2
6 7 7 8 7 6 6 5 4 5 5 5 4 3 2 3 3 3 3 3 3 3 3 3 3 3 2 2 1 1 1 1 2 2 1 1 1 1 1 1 1 1 0 1
Wind_Direction
33 70 239 237 212 216 234 260 269 271 275 276 259 271 279 276 265 253 248 254 259 266 274 248 245 242 222 187 176 168 150 139 160 163 159 133 172 304 351 12 104 128 134 148
46 292 254 252 259 241 255 277 278 282 283 272 265 270 269 254 236 234 239 244 262 275 283 282 275 238 202 198 183 172 175 168 187 227 235 179 168 263 260 299 319 146 146 147
167 265 276 274 312 282 273 246 257 270 302 285 278 280 261 258 247 286 276 260 274 255 252 254 263 242 205 194 188 194 190 183 180 160 87 118 109 54 353 317 317 304 168 147
285 289 315 321 289 252 265 253 261 273 296 289 270 276 267 235 264 270 271 270 269 275 274 272 277 257 208 198 185 188 187 180 159 144 188 172 174 195 250 255 272 312 200 136
286 309 335 291 273 251 247 265 265 265 251 280 263 231 274 228 258 271 269 268 271 277 267 268 273 266 226 186 166 159 152 139 155 168 196 183 174 179 163 109 80 330 333 75
269 289 251 252 277 258 268 312 318 345 111 265 246 218 273 247 242 260 266 267 274 276 271 277 293 317 352 98 126 115 119 101 126 179 183 162 155 147 136 118 191 290 295 330
331 313 306 285 321 335 36 62 12 356 336 254 259 231 253 257 252 243 251 258 267 271 267 294 316 337 355 36 97 120 127 113 109 84 145 156 155 161 169 173 202 217 235 255
349 304 309 339 234 279 310 136 153 235 259 289 300 245 261 272 310 310 276 269 300 292 276 265 269 273 275 266 256 57 125 126 118 124 199 113 128 158 181 187 203 214 224 248
169 269 304 309 305 151 92 170 194 156 308 287 274 277 304 346 358 354 341 351 342 325 305 284 292 305 282 251 240 203 169 224 164 159 151 131 108 102 167 206 334 210 196 64
160 261 295 310 2 8 136 149 86 110 261 286 294 285 293 316 321 331 339 338 325 325 319 313 315 322 298 268 270 244 180 210 230 125 138 141 112 94 129 140 192 167 103 68
130 173 311 356 208 234 55 88 112 150 184 211 286 281 274 270 291 301 308 317 315 308 304 306 314 313 318 337 343 5 3 59 46 26 236 104 91 83 63 77 335 146 109 109
145 129 274 269 267 255 185 183 155 167 257 222 242 273 307 300 307 306 311 324 324 310 302 302 312 336 357 346 346 4 351 7 293 212 153 87 83 84 70 4 341 27 102 100
137 119 7 343 340 353 329 241 181 169 168 206 225 272 315 340 337 328 325 326 327 336 333 334 341 351 346 340 354 1 348 346 357 93 101 80 80 102 106 12 350 9 69 111
121 138 184 217 237 219 265 264 230 173 203 240 240 267 294 307 310 313 318 317 321 325 327 331 335 339 335 338 349 350 347 348 14 76 117 129 139 117 45 34 19 8 66 103
108 185 242 260 264 248 247 257 234 215 218 225 258 265 277 285 287 291 300 310 323 327 330 328 327 329 334 336 340 345 351 357 23 74 91 87 31 55 58 52 47 39 59 85
100 162 308 293 286 268 268 262 239 233 235 243 266 277 280 292 298 297 298 305 308 309 311 314 317 322 319 313 317 331 337 352 40 64 59 47 49 53 55 55 55 58 63 69
144 138 120 280 316 339 283 248 211 217 222 215 240 260 295 312 302 284 290 296 292 290 296 300 298 288 287 291 305 311 310 340 35 50 47 60 66 59 53 55 54 59 72 73
149 143 157 287 9 259 248 244 200 222 243 232 249 268 275 274 283 279 272 272 284 293 295 292 291 292 296 297 308 317 334 2 32 42 52 70 76 62 48 56 50 40 73 80
160 152 152 165 258 277 289 263 191 214 271 242 243 268 284 299 321 308 288 265 262 273 279 281 281 279 289 289 286 322 354 11 34 315 188 132 107 97 72 56 30 27 69 58
98 123 145 164 210 245 256 244 179 111 285 256 236 265 283 320 304 291 308 303 292 296 302 303 299 300 295 288 257 155 259 305 281 262 219 163 136 149 168 182 76 33 59 67
145 160 190 200 226 261 255 226 132 176 257 274 256 265 266 248 254 281 307 308 303 308 314 320 320 309 288 276 158 174 226 260 267 254 172 150 164 178 176 153 126 85 78 85
178 177 195 182 212 253 217 151 186 223 257 261 269 271 265 266 281 297 308 312 318 325 328 333 336 322 317 80 134 177 242 264 257 147 147 161 173 176 156 145 138 111 113 106
200 195 190 197 217 245 198 204 224 214 235 253 256 271 269 278 287 298 304 307 310 316 318 326 330 330 336 17 158 201 253 244 163 149 170 182 172 169 167 151 143 126 130 135
243 196 200 246 259 255 252 251 250 233 235 252 254 254 256 264 278 294 304 310 315 317 315 324 336 330 325 325 273 230 246 170 156 164 171 160 156 154 135 141 148 155 167 166
221 181 207 251 270 289 268 243 246 249 250 261 264 248 241 249 276 287 298 303 308 312 316 322 315 307 306 321 314 274 214 158 162 168 166 160 158 148 136 143 172 195 201 190
198 188 196 234 236 225 256 258 237 237 249 251 253 259 262 237 252 277 287 293 301 308 315 323 326 323 315 321 314 301 268 179 162 158 150 147 146 143 125 96 14 360 298 240
Height
1508 1512 1514 1512 1511 1511 1511 1511 1510 1505 1501 1502 1499 1495 1491 1489 1488 1486 1485 1485 1484 1484 1484 1484 1484 1484 1484 1484 1485 1485 1486 1488 1489 1490 1490 1490 1491 1492 1494 1495 1496 1497 1499 1500
1512 1514 1511 1509 1509 1509 1510 1511 1510 1504 1500 1500 1497 1492 1488 1486 1485 1485 1484 1483 1482 1481 1480 1480 1481 1481 1481 1481 1481 1482 1483 1485 1485 1487 1488 1488 1488 1489 1491 1492 1493 1494 1495 1496
1513 1513 1509 1509 1510 1510 1510 1510 1508 1506 1501 1498 1497 1491 1486 1484 1483 1482 1482 1481 1480 1479 1478 1477 1477 1477 1477 1477 1478 1479 1480 1482 1482 1484 1484 1486 1487 1488 1488 1488 1489 1490 1491 1492
1513 1511 1509 1508 1509 1509 1509 1505 1504 1503 1505 1504 1500 1497 1485 1483 1482 1480 1479 1478 1477 1477 1476 1475 1474 1474 1474 1474 1475 1476 1477 1478 1479 1480 1481 1481 1482 1483 1484 1485 1485 1486 1487 1489
1514 1510 1510 1509 1508 1507 1506 1503 1502 1502 1504 1505 1500 1500 1487 1482 1480 1478 1477 1475 1474 1475 1473 1473 1473 1472 1471 1472 1472 1473 1474 1475 1476 1478 1479 1479 1479 1480 1482 1482 1483 1483 1483 1485
1513 1510 1510 1508 1506 1505 1503 1503 1502 1504 1506 1506 1497 1498 1489 1483 1478 1475 1474 1473 1472 1472 1472 1471 1471 1470 1469 1470 1470 1471 1472 1473 1474 1475 1475 1475 1476 1477 1478 1478 1479 1480 1481 1481
1516 1511 1508 1507 1506 1504 1505 1509 1512 1511 1511 1503 1493 1494 1487 1477 1474 1473 1472 1471 1470 1470 1470 1469 1469 1468 1468 1468 1469 1469 1470 1471 1472 1472 1473 1473 1473 1474 1475 1476 1477 1477 1478 1478
1520 1517 1510 1508 1508 1508 1508 1510 1515 1514 1509 1501 1494 1491 1483 1475 1473 1472 1471 1470 1469 1469 1468 1468 1468 1467 1467 1467 1467 1467 1468 1468 1469 1470 1471 1471 1471 1472 1472 1473 1474 1475 1475 1476
1521 1517 1510 1508 1507 1508 1509 1512 1511 1515 1516 1510 1495 1488 1480 1474 1473 1472 1471 1469 1468 1467 1467 1467 1467 1466 1466 1465 1465 1466 1466 1466 1467 1467 1468 1468 1469 1469 1470 1471 1471 1472 1473 1473
1518 1519 1513 1510 1508 1508 1509 1510 1515 1517 1516 1505 1495 1490 1485 1478 1476 1473 1471 1469 1467 1467 1467 1466 1465 1465 1464 1464 1464 1464 1465 1465 1465 1465 1465 1465 1465 1467 1468 1468 1468 1469 1470 1470
1517 1520 1516 1513 1512 1512 1511 1513 1514 1516 1516 1512 1504 1491 1481 1478 1475 1474 1472 1469 1468 1467 1467 1466 1465 1464 1464 1463 1463 1463 1463 1462 1462 1463 1463 1462 1463 1465 1465 1466 1466 1466 1467 1468
1517 1522 1522 1516 1512 1511 1511 1512 1514 1516 1516 1515 1512 1496 1479 1478 1475 1473 1471 1470 1468 1467 1466 1465 1464 1463 1462 1462 1461 1461 1460 1460 1460 1461 1461 1461 1461 1462 1463 1463 1464 1464 1464 1465
1516 1522 1522 1515 1516 1514 1514 1512 1512 1514 1516 1516 1510 1493 1479 1477 1475 1474 1472 1470 1468 1466 1465 1463 1462 1461 1461 1460 1460 1460 1460 1459 1459 1459 1459 1459 1460 1460 1460 1461 1461 1462 1462 1463
1513 1520 1521 1516 1512 1513 1515 1512 1512 1513 1515 1512 1503 1490 1481 1478 1476 1474 1472 1470 1468 1466 1465 1463 1461 1461 1460 1460 1459 1459 1458 1458 1458 1458 1458 1458 1458 1458 1459 1459 1459 1459 1460 1461
1513 1519 1518 1514 1511 1511 1510 1508 1508 1509 1506 1505 1495 1490 1481 1478 1477 1474 1472 1470 1468 1466 1464 1463 1461 1460 1459 1458 1458 1457 1457 1457 1456 1456 1456 1456 1456 1457 1457 1457 1457 1458 1459 1459
1515 1518 1518 1514 1508 1508 1506 1502 1503 1503 1502 1499 1494 1487 1479 1477 1475 1473 1471 1469 1467 1465 1464 1462 1461 1460 1458 1457 1456 1456 1455 1455 1455 1455 1455 1455 1455 1455 1455 1455 1456 1457 1457 1458
1516 1519 1519 1516 1512 1507 1504 1495 1496 1496 1495 1494 1491 1484 1478 1477 1474 1472 1470 1469 1467 1465 1463 1462 1460 1459 1458 1456 1455 1454 1454 1454 1454 1453 1453 1453 1453 1453 1454 1454 1454 1455 1456 1457
1515 1518 1521 1520 1517 1511 1494 1490 1490 1491 1489 1487 1484 1480 1477 1475 1473 1471 1470 1468 1465 1464 1462 1460 1458 1457 1456 1455 1454 1453 1452 1452 1452 1452 1452 1452 1452 1452 1452 1452 1453 1454 1454 1455
1510 1515 1520 1522 1520 1509 1493 1489 1489 1490 1486 1482 1481 1478 1476 1474 1471 1469 1468 1466 1464 1462 1460 1458 1456 1455 1453 1452 1452 1451 1450 1450 1450 1450 1450 1450 1451 1451 1451 1451 1452 1453 1453 1454
1511 1513 1519 1521 1517 1506 1489 1487 1486 1489 1487 1478 1477 1476 1474 1473 1473 1467 1465 1464 1462 1460 1458 1456 1454 1452 1450 1449 1448 1448 1447 1448 1448 1448 1448 1449 1449 1450 1450 1451 1451 1452 1453 1453
1514 1516 1517 1517 1515 1501 1487 1485 1486 1491 1483 1476 1474 1473 1472 1471 1469 1466 1463 1461 1459 1457 1455 1453 1451 1449 1448 1446 1445 1445 1445 1445 1446 1446 1447 1448 1448 1449 1449 1449 1450 1451 1452 1453
1507 1512 1514 1514 1512 1497 1481 1482 1484 1480 1474 1473 1472 1471 1469 1467 1465 1463 1461 1459 1457 1455 1453 1451 1449 1447 1446 1445 1444 1443 1443 1444 1444 1445 1445 1446 1447 1447 1448 1448 1449 1450 1451 1452
1499 1497 1496 1496 1488 1478 1476 1475 1474 1473 1473 1471 1470 1469 1467 1465 1463 1461 1459 1457 1455 1453 1451 1450 1448 1446 1445 1444 1443 1442 1442 1443 1443 1443 1444 1445 1445 1446 1447 1448 1449 1450 1451 1451
1491 1488 1490 1488 1478 1474 1473 1472 1471 1471 1470 1469 1468 1467 1465 1463 1461 1460 1458 1456 1454 1452 1450 1448 1446 1445 1444 1443 1442 1442 1442 1441 1441 1442 1443 1444 1444 1445 1446 1447 1448 1449 1449 1450
1482 1484 1484 1481 1474 1471 1468 1468 1468 1467 1467 1466 1465 1464 1462 1461 1459 1458 1456 1454 1453 1451 1449 1447 1445 1444 1443 1442 1441 1441 1441 1441 1441 1441 1442 1443 1444 1444 1445 1446 1447 1448 1448 1449
1474 1476 1477 1472 1467 1467 1465 1464 1464 1464 1463 1462 1461 1460 1459 1459 1457 1456 1455 1453 1451 1450 1448 1446 1445 1443 1442 1441 1441 1441 1440 1440 1440 1440 1441 1442 1443 1443 1444 1445 1446 1447 1447 1448